MSC1046 HECA-HEMA

Flight info

Callsign MSC1046
Flight time 0h 52m
Altitude 37000
Route CVO L315 HGD V730 MAK
Aircraft A320/M-SDE3FGHIRWY/LB1

Departure

Time 2026-04-17 00:30
Airport Cairo International Airport (HECA)

Arrival

Time 2026-04-17 01:22
Airport Marsa Alam International Airport (HEMA)
Time Latitude Longitude Altitude Speed Heading
2026-04-16 23:56 30.10859 31.39312 387 ft 0 kts 255°
2026-04-17 00:10 30.10859 31.39314 387 ft 1 kts 255°
2026-04-17 00:11 30.10863 31.39330 388 ft 2 kts 255°
2026-04-17 00:11 30.10867 31.39347 388 ft 2 kts 255°
2026-04-17 00:11 30.10871 31.39364 389 ft 2 kts 255°
2026-04-17 00:11 30.10873 31.39374 389 ft 1 kts 255°
2026-04-17 00:12 30.10880 31.39390 388 ft 2 kts 222°
2026-04-17 00:12 30.10893 31.39399 388 ft 2 kts 193°
2026-04-17 00:12 30.10905 31.39400 387 ft 0 kts 169°
2026-04-17 00:12 30.10912 31.39397 387 ft 1 kts 165°
2026-04-17 00:15 30.10909 31.39398 387 ft 1 kts 165°
2026-04-17 00:15 30.10896 31.39402 387 ft 2 kts 165°
2026-04-17 00:15 30.10874 31.39408 387 ft 3 kts 167°
2026-04-17 00:16 30.10844 31.39416 387 ft 5 kts 167°
2026-04-17 00:16 30.10805 31.39427 387 ft 6 kts 165°
2026-04-17 00:16 30.10756 31.39442 387 ft 8 kts 165°
2026-04-17 00:16 30.10691 31.39461 387 ft 10 kts 165°
2026-04-17 00:17 30.10614 31.39491 387 ft 12 kts 136°
2026-04-17 00:17 30.10616 31.39586 388 ft 12 kts 75°
2026-04-17 00:17 30.10638 31.39687 388 ft 10 kts 76°
2026-04-17 00:17 30.10657 31.39774 388 ft 9 kts 78°
2026-04-17 00:18 30.10618 31.39830 388 ft 10 kts 164°
2026-04-17 00:18 30.10541 31.39852 388 ft 11 kts 165°
2026-04-17 00:18 30.10483 31.39913 388 ft 12 kts 101°
2026-04-17 00:18 30.10518 31.40004 388 ft 13 kts 48°
2026-04-17 00:19 30.10580 31.40086 388 ft 13 kts 48°
2026-04-17 00:19 30.10646 31.40173 388 ft 14 kts 49°
2026-04-17 00:19 30.10704 31.40253 388 ft 11 kts 63°
2026-04-17 00:19 30.10680 31.40335 388 ft 11 kts 110°
2026-04-17 00:20 30.10713 31.40418 388 ft 12 kts 49°
2026-04-17 00:20 30.10770 31.40494 388 ft 12 kts 49°
2026-04-17 00:20 30.10832 31.40575 388 ft 13 kts 48°
2026-04-17 00:20 30.10896 31.40659 388 ft 14 kts 49°
2026-04-17 00:21 30.10962 31.40749 388 ft 15 kts 49°
2026-04-17 00:21 30.11031 31.40842 388 ft 15 kts 49°
2026-04-17 00:21 30.11102 31.40933 388 ft 16 kts 48°
2026-04-17 00:21 30.11171 31.41025 388 ft 16 kts 49°
2026-04-17 00:22 30.11328 31.41233 388 ft 17 kts 49°
2026-04-17 00:22 30.11406 31.41336 388 ft 17 kts 49°
2026-04-17 00:22 30.11488 31.41444 388 ft 17 kts 48°
2026-04-17 00:23 30.11570 31.41553 388 ft 18 kts 50°
2026-04-17 00:23 30.11654 31.41665 388 ft 18 kts 49°
2026-04-17 00:23 30.11742 31.41779 388 ft 18 kts 49°
2026-04-17 00:23 30.11827 31.41892 388 ft 18 kts 49°
2026-04-17 00:24 30.11913 31.42008 389 ft 19 kts 49°
2026-04-17 00:24 30.12001 31.42126 389 ft 19 kts 48°
2026-04-17 00:24 30.12091 31.42244 389 ft 19 kts 49°
2026-04-17 00:24 30.12178 31.42359 389 ft 19 kts 49°
2026-04-17 00:25 30.12263 31.42472 389 ft 19 kts 49°
2026-04-17 00:25 30.12349 31.42586 389 ft 13 kts 49°
2026-04-17 00:25 30.12402 31.42655 389 ft 11 kts 49°
2026-04-17 00:25 30.12455 31.42727 389 ft 12 kts 50°
2026-04-17 00:26 30.12483 31.42820 389 ft 12 kts 101°
2026-04-17 00:26 30.12447 31.42895 389 ft 5 kts 137°
2026-04-17 00:26 30.12444 31.42898 389 ft 0 kts 141°
2026-04-17 00:28 30.12442 31.42900 389 ft 0 kts 141°
2026-04-17 00:28 30.12431 31.42910 389 ft 3 kts 142°
2026-04-17 00:28 30.12398 31.42921 389 ft 6 kts 177°
2026-04-17 00:28 30.12343 31.42915 389 ft 9 kts 186°
2026-04-17 00:29 30.12287 31.42899 389 ft 7 kts 221°
2026-04-17 00:29 30.12276 31.42885 389 ft 0 kts 229°
2026-04-17 00:29 30.12269 31.42876 389 ft 2 kts 229°
2026-04-17 00:29 30.12253 31.42854 389 ft 8 kts 229°
2026-04-17 00:30 30.12048 31.42582 389 ft 81 kts 229°
2026-04-17 00:30 30.11532 31.41901 389 ft 142 kts 228°
2026-04-17 00:30 30.10818 31.40999 777 ft 156 kts 225°
2026-04-17 00:30 30.10091 31.40112 1435 ft 153 kts 216°
2026-04-17 00:31 30.09109 31.39748 2099 ft 157 kts 181°
2026-04-17 00:31 30.08038 31.40173 2440 ft 177 kts 152°
2026-04-17 00:31 30.07004 31.41042 2781 ft 193 kts 146°
2026-04-17 00:31 30.05917 31.42059 3065 ft 213 kts 144°
2026-04-17 00:32 30.04710 31.43193 3385 ft 233 kts 144°
2026-04-17 00:32 30.03390 31.44426 3796 ft 251 kts 144°
2026-04-17 00:32 30.01963 31.45686 4241 ft 266 kts 147°
2026-04-17 00:32 30.00531 31.46889 4937 ft 269 kts 147°
2026-04-17 00:33 29.99004 31.48171 5836 ft 267 kts 147°
2026-04-17 00:33 29.97545 31.49397 6646 ft 267 kts 147°
2026-04-17 00:33 29.96044 31.50666 7467 ft 268 kts 147°
2026-04-17 00:33 29.94551 31.51930 8266 ft 270 kts 147°
2026-04-17 00:34 29.93070 31.53186 9071 ft 273 kts 148°
2026-04-17 00:34 29.91529 31.54493 9906 ft 275 kts 148°
2026-04-17 00:34 29.89984 31.55802 10520 ft 284 kts 148°
2026-04-17 00:34 29.88372 31.57166 11190 ft 293 kts 149°
2026-04-17 00:35 29.86722 31.58566 11947 ft 297 kts 149°
2026-04-17 00:35 29.85082 31.59958 12669 ft 301 kts 149°
2026-04-17 00:35 29.83393 31.61389 13426 ft 304 kts 150°
2026-04-17 00:35 29.81672 31.62847 14160 ft 308 kts 150°
2026-04-17 00:36 29.79940 31.64311 14868 ft 313 kts 150°
2026-04-17 00:36 29.78157 31.65817 15586 ft 317 kts 150°
2026-04-17 00:36 29.76399 31.67304 16260 ft 321 kts 151°
2026-04-17 00:36 29.74631 31.68798 16918 ft 325 kts 150°
2026-04-17 00:37 29.72807 31.70340 17568 ft 329 kts 151°
2026-04-17 00:37 29.70939 31.71921 18205 ft 333 kts 151°
2026-04-17 00:37 29.69054 31.73515 18777 ft 338 kts 152°
2026-04-17 00:37 29.67139 31.75131 19342 ft 343 kts 152°
2026-04-17 00:38 29.65204 31.76763 19902 ft 347 kts 152°
2026-04-17 00:38 29.63243 31.78417 20449 ft 352 kts 152°
2026-04-17 00:38 29.61238 31.80105 20969 ft 357 kts 152°
2026-04-17 00:38 29.59245 31.81784 21478 ft 362 kts 152°
2026-04-17 00:39 29.57214 31.83496 22006 ft 366 kts 153°
2026-04-17 00:39 29.55153 31.85231 22511 ft 370 kts 153°
2026-04-17 00:39 29.53111 31.86949 23017 ft 374 kts 153°
2026-04-17 00:39 29.51008 31.88716 23532 ft 377 kts 153°
2026-04-17 00:40 29.48881 31.90499 24007 ft 381 kts 153°
2026-04-17 00:40 29.46719 31.92314 24488 ft 385 kts 152°
2026-04-17 00:40 29.44544 31.94138 24938 ft 389 kts 152°
2026-04-17 00:40 29.42407 31.95930 25363 ft 393 kts 152°
2026-04-17 00:41 29.40197 31.97785 25815 ft 396 kts 152°
2026-04-17 00:41 29.37964 31.99659 26272 ft 399 kts 152°
2026-04-17 00:41 29.35735 32.01527 26682 ft 402 kts 152°
2026-04-17 00:41 29.33471 32.03422 27101 ft 405 kts 152°
2026-04-17 00:42 29.31182 32.05337 27514 ft 408 kts 152°
2026-04-17 00:42 29.28903 32.07244 27894 ft 412 kts 151°
2026-04-17 00:42 29.26553 32.09209 28286 ft 415 kts 152°
2026-04-17 00:42 29.24244 32.11139 28667 ft 418 kts 152°
2026-04-17 00:43 29.21852 32.13134 29081 ft 420 kts 151°
2026-04-17 00:43 29.19493 32.15104 29440 ft 423 kts 151°
2026-04-17 00:43 29.17136 32.17071 29799 ft 425 kts 151°
2026-04-17 00:43 29.14691 32.19106 30132 ft 428 kts 151°
2026-04-17 00:44 29.12283 32.21112 30458 ft 431 kts 151°
2026-04-17 00:44 29.09846 32.23141 30783 ft 433 kts 151°
2026-04-17 00:44 29.07391 32.25183 31104 ft 436 kts 151°
2026-04-17 00:44 29.04940 32.27223 31426 ft 438 kts 151°
2026-04-17 00:45 29.02444 32.29298 31746 ft 440 kts 151°
2026-04-17 00:45 28.99946 32.31371 32016 ft 442 kts 151°
2026-04-17 00:45 28.97472 32.33424 32301 ft 445 kts 150°
2026-04-17 00:45 28.94930 32.35533 32581 ft 447 kts 151°
2026-04-17 00:46 28.92417 32.37616 32838 ft 449 kts 150°
2026-04-17 00:46 28.89890 32.39711 33129 ft 451 kts 150°
2026-04-17 00:46 28.87326 32.41833 33408 ft 452 kts 150°
2026-04-17 00:46 28.84755 32.43960 33668 ft 455 kts 150°
2026-04-17 00:47 28.82201 32.46073 33940 ft 457 kts 150°
2026-04-17 00:47 28.79612 32.48212 34187 ft 459 kts 150°
2026-04-17 00:47 28.77014 32.50359 34481 ft 460 kts 150°
2026-04-17 00:47 28.74437 32.52487 34840 ft 459 kts 150°
2026-04-17 00:48 28.71821 32.54646 35190 ft 458 kts 150°
2026-04-17 00:48 28.69244 32.56771 35446 ft 459 kts 150°
2026-04-17 00:48 28.66651 32.58907 35661 ft 461 kts 150°
2026-04-17 00:48 28.64029 32.61064 35866 ft 463 kts 150°
2026-04-17 00:49 28.61441 32.63195 36084 ft 464 kts 150°
2026-04-17 00:49 28.58806 32.65361 36304 ft 464 kts 151°
2026-04-17 00:49 28.56184 32.67516 36498 ft 465 kts 151°
2026-04-17 00:49 28.53531 32.69696 36652 ft 466 kts 151°
2026-04-17 00:50 28.48244 32.74030 36753 ft 469 kts 151°
2026-04-17 00:50 28.42930 32.78387 36751 ft 469 kts 151°
2026-04-17 00:51 28.37617 32.82735 36760 ft 470 kts 151°
2026-04-17 00:51 28.32307 32.87074 36759 ft 470 kts 151°
2026-04-17 00:52 28.27004 32.91404 36759 ft 471 kts 151°
2026-04-17 00:52 28.21641 32.95778 36758 ft 472 kts 151°
2026-04-17 00:53 28.16303 33.00124 36756 ft 472 kts 151°
2026-04-17 00:53 28.10977 33.04456 36760 ft 472 kts 151°
2026-04-17 00:54 28.05614 33.08812 36758 ft 473 kts 151°
2026-04-17 00:54 28.00255 33.13161 36757 ft 472 kts 151°
2026-04-17 00:55 27.94928 33.17492 36752 ft 472 kts 151°
2026-04-17 00:55 27.89583 33.21830 36757 ft 472 kts 151°
2026-04-17 00:56 27.84219 33.26182 36745 ft 473 kts 151°
2026-04-17 00:56 27.78836 33.30544 36743 ft 475 kts 151°
2026-04-17 00:57 27.73440 33.34908 36755 ft 474 kts 151°
2026-04-17 00:57 27.68096 33.39228 36745 ft 474 kts 151°
2026-04-17 00:58 27.62717 33.43568 36751 ft 474 kts 151°
2026-04-17 00:58 27.57312 33.47925 36743 ft 475 kts 151°
2026-04-17 00:59 27.51908 33.52275 36755 ft 476 kts 151°
2026-04-17 00:59 27.46513 33.56609 36754 ft 477 kts 151°
2026-04-17 01:00 27.41089 33.60963 36747 ft 478 kts 151°
2026-04-17 01:00 27.35636 33.65336 36758 ft 478 kts 152°
2026-04-17 01:01 27.30260 33.69643 36743 ft 477 kts 152°
2026-04-17 01:01 27.24864 33.73961 36610 ft 474 kts 152°
2026-04-17 01:02 27.22172 33.76112 35841 ft 478 kts 152°
2026-04-17 01:02 27.19469 33.78313 34967 ft 483 kts 149°
2026-04-17 01:02 27.16851 33.80722 33934 ft 493 kts 144°
2026-04-17 01:02 27.14368 33.83356 33073 ft 496 kts 141°
2026-04-17 01:03 27.11929 33.86094 32557 ft 490 kts 140°
2026-04-17 01:03 27.09559 33.88780 32074 ft 483 kts 140°
2026-04-17 01:03 27.07232 33.91412 31549 ft 477 kts 140°
2026-04-17 01:03 27.04910 33.94025 31018 ft 472 kts 141°
2026-04-17 01:04 27.02561 33.96658 30482 ft 466 kts 140°
2026-04-17 01:04 27.00254 33.99238 29920 ft 462 kts 141°
2026-04-17 01:04 26.97983 34.01776 29382 ft 457 kts 140°
2026-04-17 01:04 26.95757 34.04261 28845 ft 453 kts 140°
2026-04-17 01:05 26.93536 34.06739 28303 ft 448 kts 140°
2026-04-17 01:05 26.91316 34.09212 27733 ft 445 kts 140°
2026-04-17 01:05 26.89148 34.11629 27188 ft 440 kts 140°
2026-04-17 01:05 26.86986 34.14035 26659 ft 436 kts 140°
2026-04-17 01:06 26.84820 34.16343 26109 ft 428 kts 147°
2026-04-17 01:06 26.82354 34.18073 25546 ft 414 kts 161°
2026-04-17 01:06 26.79682 34.19116 25020 ft 403 kts 170°
2026-04-17 01:06 26.77016 34.19938 24492 ft 398 kts 171°
2026-04-17 01:07 26.74332 34.20745 23942 ft 395 kts 171°
2026-04-17 01:07 26.71680 34.21547 23423 ft 391 kts 170°
2026-04-17 01:07 26.69098 34.22336 22902 ft 388 kts 170°
2026-04-17 01:07 26.66490 34.23138 22345 ft 386 kts 170°
2026-04-17 01:08 26.63926 34.23930 21817 ft 383 kts 170°
2026-04-17 01:08 26.61402 34.24713 21296 ft 380 kts 169°
2026-04-17 01:08 26.58834 34.25510 20779 ft 377 kts 169°
2026-04-17 01:08 26.56289 34.26301 20245 ft 375 kts 169°
2026-04-17 01:09 26.53780 34.27081 19738 ft 373 kts 169°
2026-04-17 01:09 26.51287 34.27856 19226 ft 371 kts 169°
2026-04-17 01:09 26.48809 34.28625 18742 ft 368 kts 169°
2026-04-17 01:09 26.46323 34.29400 18250 ft 365 kts 169°
2026-04-17 01:10 26.43881 34.30159 17748 ft 363 kts 168°
2026-04-17 01:10 26.41461 34.30910 17268 ft 361 kts 168°
2026-04-17 01:10 26.39048 34.31658 16813 ft 358 kts 168°
2026-04-17 01:10 26.36627 34.32411 16368 ft 355 kts 168°
2026-04-17 01:11 26.34256 34.33147 15911 ft 353 kts 168°
2026-04-17 01:11 26.31892 34.33881 15439 ft 351 kts 168°
2026-04-17 01:11 26.29541 34.34607 14967 ft 349 kts 168°
2026-04-17 01:11 26.27194 34.35334 14504 ft 347 kts 168°
2026-04-17 01:12 26.24888 34.36047 14073 ft 345 kts 168°
2026-04-17 01:12 26.22582 34.36762 13628 ft 342 kts 168°
2026-04-17 01:12 26.20262 34.37481 13174 ft 340 kts 168°
2026-04-17 01:12 26.17991 34.38182 12734 ft 337 kts 167°
2026-04-17 01:13 26.15732 34.38879 12283 ft 334 kts 167°
2026-04-17 01:13 26.13500 34.39568 11948 ft 328 kts 167°
2026-04-17 01:13 26.11316 34.40243 11588 ft 323 kts 167°
2026-04-17 01:13 26.09173 34.40904 11234 ft 318 kts 167°
2026-04-17 01:14 26.07047 34.41560 10888 ft 313 kts 166°
2026-04-17 01:14 26.04950 34.42207 10542 ft 309 kts 166°
2026-04-17 01:14 26.02897 34.42838 10212 ft 304 kts 166°
2026-04-17 01:14 26.00869 34.43464 9890 ft 299 kts 166°
2026-04-17 01:15 25.98863 34.44082 9564 ft 295 kts 166°
2026-04-17 01:15 25.96893 34.44693 9200 ft 293 kts 165°
2026-04-17 01:15 25.94924 34.45240 8815 ft 291 kts 170°
2026-04-17 01:15 25.92901 34.45586 8428 ft 289 kts 175°
2026-04-17 01:16 25.90931 34.45808 8057 ft 288 kts 175°
2026-04-17 01:16 25.88912 34.46021 7684 ft 286 kts 176°
2026-04-17 01:16 25.86957 34.46228 7317 ft 284 kts 176°
2026-04-17 01:16 25.84976 34.46436 6940 ft 283 kts 175°
2026-04-17 01:17 25.83006 34.46647 6573 ft 281 kts 175°
2026-04-17 01:17 25.81061 34.46856 6239 ft 277 kts 175°
2026-04-17 01:17 25.79170 34.47060 5831 ft 268 kts 175°
2026-04-17 01:17 25.77354 34.47252 5416 ft 258 kts 175°
2026-04-17 01:18 25.75593 34.47439 5008 ft 248 kts 174°
2026-04-17 01:18 25.73907 34.47618 4470 ft 246 kts 174°
2026-04-17 01:18 25.72189 34.47854 3836 ft 245 kts 163°
2026-04-17 01:18 25.70655 34.48644 3141 ft 247 kts 147°
2026-04-17 01:19 25.69197 34.49617 2617 ft 240 kts 147°
2026-04-17 01:19 25.67814 34.50536 2493 ft 220 kts 147°
2026-04-17 01:19 25.66554 34.51361 2326 ft 204 kts 148°
2026-04-17 01:19 25.65370 34.52130 2111 ft 187 kts 147°
2026-04-17 01:20 25.64306 34.52818 1896 ft 170 kts 148°
2026-04-17 01:20 25.63336 34.53447 1679 ft 154 kts 148°
2026-04-17 01:20 25.62433 34.54031 1464 ft 142 kts 148°
2026-04-17 01:20 25.61611 34.54563 1266 ft 134 kts 148°
2026-04-17 01:21 25.60810 34.55084 1102 ft 133 kts 148°
2026-04-17 01:21 25.60013 34.55600 934 ft 133 kts 148°
2026-04-17 01:21 25.59205 34.56124 758 ft 132 kts 148°
2026-04-17 01:21 25.58417 34.56631 561 ft 132 kts 149°
2026-04-17 01:22 25.57621 34.57149 388 ft 130 kts 149°
2026-04-17 01:22 25.56844 34.57650 270 ft 126 kts 149°
2026-04-17 01:22 25.56163 34.58084 268 ft 91 kts 149°
2026-04-17 01:22 25.55761 34.58341 268 ft 41 kts 150°
2026-04-17 01:23 25.55550 34.58476 267 ft 22 kts 150°
2026-04-17 01:23 25.55415 34.58562 265 ft 22 kts 149°
2026-04-17 01:23 25.55277 34.58651 263 ft 23 kts 150°
2026-04-17 01:23 25.55139 34.58738 262 ft 22 kts 150°
2026-04-17 01:24 25.55056 34.58795 262 ft 9 kts 128°
2026-04-17 01:24 25.55071 34.58877 257 ft 14 kts 60°
2026-04-17 01:24 25.55121 34.58975 251 ft 13 kts 59°
2026-04-17 01:24 25.55171 34.59066 246 ft 12 kts 59°
2026-04-17 01:25 25.55216 34.59135 243 ft 10 kts 26°
2026-04-17 01:25 25.55287 34.59108 243 ft 11 kts 329°
2026-04-17 01:25 25.55328 34.59082 244 ft 1 kts 329°
2026-04-17 01:25 25.55341 34.59078 243 ft 2 kts
2026-04-17 01:26 25.55367 34.59107 241 ft 7 kts 58°
2026-04-17 01:26 25.55381 34.59138 240 ft 2 kts 64°
2026-04-17 01:26 25.55391 34.59155 239 ft 2 kts 60°
2026-04-17 01:26 25.55392 34.59158 239 ft 0 kts 60°